Time,TemperatureF,DewpointF,PressureIn,WindDirection,WindDirectionDegrees,WindSpeedMPH,WindSpeedGustMPH,Humidity,HourlyPrecipIn,Conditions,Clouds,dailyrainin,SoftwareType,DateUTC
2013-03-24 00:03:00,73.0,72.0,29.82,East,93,0.0,0.0,96,0.00,,,0.00,,2013-03-24 04:03:00,
2013-03-24 00:13:00,73.0,72.0,29.82,East,93,0.0,0.0,96,0.00,,,0.00,,2013-03-24 04:13:00,
2013-03-24 00:23:00,73.0,72.0,29.82,SE,140,0.0,5.0,96,0.00,,,0.00,,2013-03-24 04:23:00,
2013-03-24 00:33:00,73.0,72.0,29.81,SE,140,0.0,0.0,96,0.00,,,0.00,,2013-03-24 04:33:00,
2013-03-24 00:43:00,73.0,72.0,29.81,SE,140,0.0,0.0,96,0.00,,,0.00,,2013-03-24 04:43:00,
2013-03-24 00:53:00,73.0,72.0,29.80,ESE,106,0.0,6.0,96,0.00,,,0.00,,2013-03-24 04:53:00,
2013-03-24 01:03:00,73.0,72.0,29.80,ESE,106,0.0,0.0,96,0.00,,,0.00,,2013-03-24 05:03:00,
2013-03-24 01:13:00,73.0,72.0,29.80,ESE,106,0.0,0.0,96,0.00,,,0.00,,2013-03-24 05:13:00,
2013-03-24 01:23:00,72.0,71.0,29.79,ESE,106,0.0,0.0,96,0.00,,,0.00,,2013-03-24 05:23:00,
2013-03-24 01:32:00,72.0,71.0,29.79,ESE,106,0.0,3.0,96,0.00,,,0.00,,2013-03-24 05:32:00,
2013-03-24 01:43:00,72.0,71.0,29.79,ESE,106,0.0,3.0,96,0.00,,,0.00,,2013-03-24 05:43:00,
2013-03-24 01:52:00,72.0,71.0,29.78,SE,128,0.0,8.0,96,0.00,,,0.00,,2013-03-24 05:52:00,
2013-03-24 02:02:00,72.0,71.0,29.78,SE,128,0.0,0.0,96,0.00,,,0.00,,2013-03-24 06:02:00,
2013-03-24 02:12:00,72.0,71.0,29.78,SE,128,0.0,0.0,96,0.00,,,0.00,,2013-03-24 06:12:00,
2013-03-24 02:22:00,72.0,71.0,29.77,SE,128,0.0,0.0,96,0.00,,,0.00,,2013-03-24 06:22:00,
2013-03-24 02:32:00,71.0,70.0,29.76,SE,128,0.0,0.0,96,0.00,,,0.00,,2013-03-24 06:32:00,
2013-03-24 02:42:00,71.0,70.0,29.76,SE,128,0.0,0.0,96,0.00,,,0.00,,2013-03-24 06:42:00,
2013-03-24 02:52:00,71.0,70.0,29.75,SE,128,0.0,0.0,96,0.00,,,0.00,,2013-03-24 06:52:00,
2013-03-24 03:02:00,71.0,70.0,29.75,SE,128,0.0,0.0,96,0.00,,,0.00,,2013-03-24 07:02:00,
2013-03-24 03:12:00,71.0,70.0,29.75,SE,128,0.0,0.0,96,0.00,,,0.00,,2013-03-24 07:12:00,
2013-03-24 03:22:00,71.0,70.0,29.74,SE,131,0.0,5.0,97,0.00,,,0.00,,2013-03-24 07:22:00,
2013-03-24 03:32:00,71.0,70.0,29.73,SE,136,0.0,5.0,97,0.00,,,0.00,,2013-03-24 07:32:00,
2013-03-24 03:42:00,71.0,70.0,29.73,SE,136,0.0,5.0,97,0.00,,,0.00,,2013-03-24 07:42:00,
2013-03-24 03:52:00,71.0,71.0,29.72,ESE,103,0.0,5.0,100,0.00,,,0.00,,2013-03-24 07:52:00,
2013-03-24 04:03:00,71.0,71.0,29.71,SE,132,2.0,7.0,100,0.00,,,0.00,,2013-03-24 08:03:00,
2013-03-24 04:12:00,71.0,71.0,29.71,SE,132,2.0,7.0,100,0.00,,,0.00,,2013-03-24 08:12:00,
2013-03-24 04:22:00,71.0,71.0,29.71,SE,132,2.0,7.0,100,0.00,,,0.00,,2013-03-24 08:22:00,
2013-03-24 04:32:00,71.0,71.0,29.71,East,82,0.0,0.0,100,0.00,,,0.00,,2013-03-24 08:32:00,
2013-03-24 04:42:00,71.0,71.0,29.71,East,82,0.0,0.0,100,0.00,,,0.00,,2013-03-24 08:42:00,
2013-03-24 04:52:00,71.0,71.0,29.71,East,82,0.0,0.0,100,0.00,,,0.00,,2013-03-24 08:52:00,
2013-03-24 05:02:00,71.0,71.0,29.71,East,82,0.0,0.0,100,0.00,,,0.00,,2013-03-24 09:02:00,
2013-03-24 05:12:00,71.0,71.0,29.71,East,82,0.0,0.0,100,0.00,,,0.00,,2013-03-24 09:12:00,
2013-03-24 05:22:00,71.0,71.0,29.71,East,82,0.0,0.0,100,0.00,,,0.00,,2013-03-24 09:22:00,
2013-03-24 05:33:00,71.0,71.0,29.70,East,82,0.0,0.0,100,0.00,,,0.00,,2013-03-24 09:33:00,
2013-03-24 05:43:00,71.0,71.0,29.70,East,82,0.0,0.0,100,0.00,,,0.00,,2013-03-24 09:43:00,
2013-03-24 05:53:00,71.0,71.0,29.70,East,82,0.0,0.0,100,0.00,,,0.00,,2013-03-24 09:53:00,
2013-03-24 06:03:00,71.0,71.0,29.70,South,185,0.0,5.0,100,0.00,,,0.00,,2013-03-24 10:03:00,
2013-03-24 06:12:00,71.0,71.0,29.70,South,185,0.0,5.0,100,0.00,,,0.00,,2013-03-24 10:12:00,
2013-03-24 06:23:00,71.0,71.0,29.70,South,185,0.0,5.0,100,0.00,,,0.00,,2013-03-24 10:23:00,
2013-03-24 06:33:00,73.0,72.0,29.69,South,187,1.0,9.0,97,0.00,,,0.00,,2013-03-24 10:33:00,
2013-03-24 06:42:00,73.0,72.0,29.69,South,187,1.0,9.0,97,0.00,,,0.00,,2013-03-24 10:42:00,
2013-03-24 06:53:00,73.0,72.0,29.69,South,187,1.0,9.0,97,0.00,,,0.00,,2013-03-24 10:53:00,
2013-03-24 07:03:00,73.0,72.0,29.68,South,172,0.0,13.0,97,0.00,,,0.00,,2013-03-24 11:03:00,
2013-03-24 07:12:00,73.0,72.0,29.68,South,172,0.0,13.0,97,0.00,,,0.00,,2013-03-24 11:12:00,
2013-03-24 07:22:00,73.0,72.0,29.68,SSW,197,1.0,14.0,96,0.00,,,0.00,,2013-03-24 11:22:00,
2013-03-24 07:33:00,73.0,72.0,29.68,SSW,197,1.0,14.0,96,0.00,,,0.00,,2013-03-24 11:33:00,
2013-03-24 07:42:00,73.0,72.0,29.68,SSW,197,1.0,14.0,96,0.00,,,0.00,,2013-03-24 11:42:00,
2013-03-24 07:52:00,73.0,72.0,29.69,SSW,195,1.0,16.0,96,0.00,,,0.00,,2013-03-24 11:52:00,
2013-03-24 08:03:00,73.0,72.0,29.69,SW,220,4.0,12.0,96,0.00,,,0.00,,2013-03-24 12:03:00,
2013-03-24 08:13:00,73.0,72.0,29.69,SW,220,4.0,12.0,96,0.00,,,0.00,,2013-03-24 12:13:00,
2013-03-24 08:22:00,73.0,72.0,29.69,SSE,156,4.0,14.0,96,0.00,,,0.00,,2013-03-24 12:22:00,
2013-03-24 08:32:00,73.0,72.0,29.69,SSE,156,4.0,14.0,96,0.00,,,0.00,,2013-03-24 12:32:00,
2013-03-24 08:42:00,73.0,72.0,29.69,SSE,156,4.0,14.0,96,0.00,,,0.00,,2013-03-24 12:42:00,
2013-03-24 08:52:00,73.0,72.0,29.69,SSW,200,7.0,16.0,96,0.00,,,0.00,,2013-03-24 12:52:00,
2013-03-24 09:02:00,73.0,72.0,29.70,South,174,5.0,18.0,96,0.00,,,0.00,,2013-03-24 13:02:00,
2013-03-24 09:13:00,73.0,72.0,29.70,South,174,5.0,18.0,96,0.00,,,0.00,,2013-03-24 13:13:00,
2013-03-24 09:22:00,74.0,73.0,29.71,SSW,196,3.0,17.0,96,0.00,,,0.00,,2013-03-24 13:22:00,
2013-03-24 09:32:00,74.0,73.0,29.71,SSW,196,3.0,17.0,96,0.00,,,0.00,,2013-03-24 13:32:00,
2013-03-24 09:42:00,74.0,73.0,29.71,SSW,196,3.0,17.0,96,0.00,,,0.00,,2013-03-24 13:42:00,
2013-03-24 09:52:00,74.0,73.0,29.71,SSW,196,3.0,17.0,96,0.00,,,0.00,,2013-03-24 13:52:00,
2013-03-24 10:02:00,74.0,72.0,29.74,SSW,213,5.0,15.0,95,0.00,,,0.00,,2013-03-24 14:02:00,
2013-03-24 10:13:00,74.0,72.0,29.74,SSW,213,5.0,15.0,95,0.00,,,0.00,,2013-03-24 14:13:00,
2013-03-24 10:22:00,74.0,72.0,29.75,SSW,198,3.0,17.0,94,0.00,,,0.00,,2013-03-24 14:22:00,
2013-03-24 10:33:00,74.0,72.0,29.76,SSW,198,5.0,13.0,95,0.00,,,0.00,,2013-03-24 14:33:00,
2013-03-24 10:42:00,74.0,72.0,29.76,SSW,198,5.0,13.0,95,0.00,,,0.00,,2013-03-24 14:42:00,
2013-03-24 10:53:00,74.0,72.0,29.76,SSW,210,1.0,15.0,95,0.00,,,0.00,,2013-03-24 14:53:00,
2013-03-24 11:02:00,74.0,72.0,29.76,South,182,3.0,12.0,94,0.00,,,0.00,,2013-03-24 15:02:00,
2013-03-24 11:12:00,74.0,72.0,29.76,South,182,3.0,12.0,94,0.00,,,0.00,,2013-03-24 15:12:00,
2013-03-24 11:22:00,75.0,73.0,29.76,SSW,198,4.0,12.0,93,0.00,,,0.00,,2013-03-24 15:22:00,
2013-03-24 11:33:00,76.0,73.0,29.76,SSW,210,6.0,17.0,91,0.00,,,0.00,,2013-03-24 15:33:00,
2013-03-24 11:43:00,76.0,73.0,29.76,SSW,210,6.0,17.0,91,0.00,,,0.00,,2013-03-24 15:43:00,
2013-03-24 11:53:00,76.0,73.0,29.76,SSW,210,6.0,17.0,91,0.00,,,0.00,,2013-03-24 15:53:00,
2013-03-24 12:03:00,77.0,74.0,29.74,SW,221,5.0,20.0,89,0.00,,,0.00,,2013-03-24 16:03:00,
2013-03-24 12:13:00,77.0,74.0,29.74,SW,221,5.0,20.0,89,0.00,,,0.00,,2013-03-24 16:13:00,
2013-03-24 12:23:00,79.0,74.0,29.73,WSW,242,5.0,22.0,84,0.00,,,0.00,,2013-03-24 16:23:00,
2013-03-24 12:33:00,79.0,74.0,29.73,WSW,242,5.0,22.0,84,0.00,,,0.00,,2013-03-24 16:33:00,
2013-03-24 12:43:00,79.0,74.0,29.73,WSW,242,5.0,22.0,84,0.00,,,0.00,,2013-03-24 16:43:00,
2013-03-24 12:52:00,81.0,73.0,29.74,SW,215,2.0,14.0,77,0.00,,,0.00,,2013-03-24 16:52:00,
2013-03-24 13:02:00,81.0,72.0,29.74,SSW,202,7.0,16.0,75,0.00,,,0.00,,2013-03-24 17:02:00,
2013-03-24 13:12:00,81.0,72.0,29.74,SSW,202,7.0,16.0,75,0.00,,,0.00,,2013-03-24 17:12:00,
2013-03-24 13:23:00,80.0,72.0,29.72,SW,216,4.0,15.0,77,0.00,,,0.00,,2013-03-24 17:23:00,
2013-03-24 13:33:00,80.0,73.0,29.72,SSW,201,7.0,16.0,80,0.00,,,0.00,,2013-03-24 17:33:00,
2013-03-24 13:42:00,80.0,73.0,29.72,SSW,201,7.0,16.0,80,0.00,,,0.00,,2013-03-24 17:42:00,
2013-03-24 13:53:00,82.0,73.0,29.70,SSW,198,6.0,21.0,74,0.00,,,0.00,,2013-03-24 17:53:00,
2013-03-24 14:03:00,81.0,72.0,29.69,SSW,208,1.0,16.0,75,0.00,,,0.00,,2013-03-24 18:03:00,
2013-03-24 14:12:00,81.0,72.0,29.69,SSW,208,1.0,16.0,75,0.00,,,0.00,,2013-03-24 18:12:00,
2013-03-24 14:22:00,80.0,72.0,29.69,SSW,205,6.0,20.0,78,0.00,,,0.00,,2013-03-24 18:22:00,
2013-03-24 14:33:00,80.0,73.0,29.68,SSW,206,5.0,18.0,79,0.00,,,0.00,,2013-03-24 18:33:00,
2013-03-24 14:43:00,80.0,73.0,29.68,SSW,206,5.0,18.0,79,0.00,,,0.00,,2013-03-24 18:43:00,
2013-03-24 14:52:00,80.0,73.0,29.68,SSW,206,5.0,18.0,79,0.00,,,0.00,,2013-03-24 18:52:00,
2013-03-24 15:02:00,80.0,73.0,29.68,SSW,206,5.0,18.0,79,0.00,,,0.00,,2013-03-24 19:02:00,
2013-03-24 15:12:00,80.0,73.0,29.68,SSW,206,5.0,18.0,79,0.00,,,0.00,,2013-03-24 19:12:00,
2013-03-24 15:23:00,79.0,73.0,29.67,WSW,241,5.0,16.0,83,0.00,,,0.00,,2013-03-24 19:23:00,
2013-03-24 15:32:00,78.0,72.0,29.67,SSW,203,7.0,23.0,83,0.00,,,0.00,,2013-03-24 19:32:00,
2013-03-24 15:43:00,78.0,72.0,29.67,SSW,203,7.0,23.0,83,0.00,,,0.00,,2013-03-24 19:43:00,
2013-03-24 15:53:00,78.0,72.0,29.67,SSW,203,7.0,23.0,83,0.00,,,0.00,,2013-03-24 19:53:00,
2013-03-24 16:03:00,79.0,73.0,29.67,SW,223,6.0,17.0,82,0.00,,,0.00,,2013-03-24 20:03:00,
2013-03-24 16:12:00,79.0,73.0,29.67,SW,223,6.0,17.0,82,0.00,,,0.00,,2013-03-24 20:12:00,
2013-03-24 16:22:00,79.0,73.0,29.67,SW,223,6.0,17.0,82,0.00,,,0.00,,2013-03-24 20:22:00,
2013-03-24 16:32:00,79.0,73.0,29.66,SW,215,5.0,15.0,82,0.00,,,0.00,,2013-03-24 20:32:00,
2013-03-24 16:42:00,79.0,73.0,29.66,SW,215,5.0,15.0,82,0.00,,,0.00,,2013-03-24 20:42:00,
2013-03-24 16:53:00,79.0,73.0,29.66,SW,215,5.0,15.0,82,0.00,,,0.00,,2013-03-24 20:53:00,
2013-03-24 17:03:00,79.0,72.0,29.65,SW,224,6.0,15.0,80,0.00,,,0.00,,2013-03-24 21:03:00,
2013-03-24 17:12:00,79.0,72.0,29.65,SW,224,6.0,15.0,80,0.00,,,0.00,,2013-03-24 21:12:00,
2013-03-24 17:23:00,79.0,73.0,29.65,SW,234,4.0,15.0,81,0.00,,,0.00,,2013-03-24 21:23:00,
2013-03-24 17:33:00,79.0,73.0,29.65,WSW,243,3.0,10.0,82,0.00,,,0.00,,2013-03-24 21:33:00,
2013-03-24 17:43:00,79.0,73.0,29.65,WSW,243,3.0,10.0,82,0.00,,,0.00,,2013-03-24 21:43:00,
2013-03-24 17:53:00,78.0,72.0,29.65,West,261,3.0,14.0,83,0.00,,,0.00,,2013-03-24 21:53:00,
2013-03-24 18:03:00,78.0,72.0,29.65,SW,221,5.0,10.0,83,0.00,,,0.00,,2013-03-24 22:03:00,
2013-03-24 18:13:00,78.0,72.0,29.65,SW,221,5.0,10.0,83,0.00,,,0.00,,2013-03-24 22:13:00,
2013-03-24 18:23:00,78.0,73.0,29.65,West,262,4.0,12.0,85,0.00,,,0.00,,2013-03-24 22:23:00,
2013-03-24 18:33:00,78.0,73.0,29.65,West,262,4.0,12.0,85,0.00,,,0.00,,2013-03-24 22:33:00,
2013-03-24 18:43:00,78.0,73.0,29.65,West,262,4.0,12.0,85,0.00,,,0.00,,2013-03-24 22:43:00,
2013-03-24 18:53:00,77.0,72.0,29.66,WSW,241,2.0,12.0,86,0.00,,,0.00,,2013-03-24 22:53:00,
2013-03-24 19:03:00,77.0,72.0,29.66,SW,232,2.0,7.0,86,0.00,,,0.00,,2013-03-24 23:03:00,
2013-03-24 19:12:00,77.0,72.0,29.66,SW,232,2.0,7.0,86,0.00,,,0.00,,2013-03-24 23:12:00,
2013-03-24 19:22:00,76.0,72.0,29.67,SSW,204,1.0,10.0,86,0.00,,,0.00,,2013-03-24 23:22:00,
2013-03-24 19:32:00,76.0,72.0,29.67,SSW,204,1.0,10.0,86,0.00,,,0.00,,2013-03-24 23:32:00,
2013-03-24 19:42:00,76.0,72.0,29.67,SSW,204,1.0,10.0,86,0.00,,,0.00,,2013-03-24 23:42:00,
2013-03-24 19:53:00,76.0,73.0,29.67,South,175,1.0,9.0,89,0.00,,,0.00,,2013-03-24 23:53:00,
2013-03-24 20:02:00,76.0,73.0,29.67,South,175,1.0,9.0,89,0.00,,,0.00,,2013-03-25 00:02:00,
2013-03-24 20:12:00,76.0,73.0,29.67,South,175,1.0,9.0,89,0.00,,,0.00,,2013-03-25 00:12:00,
2013-03-24 20:23:00,75.0,72.0,29.69,West,265,1.0,8.0,90,0.00,,,0.00,,2013-03-25 00:23:00,
2013-03-24 20:32:00,75.0,72.0,29.69,WNW,284,0.0,9.0,91,0.00,,,0.00,,2013-03-25 00:32:00,
2013-03-24 20:43:00,75.0,72.0,29.69,WNW,284,0.0,9.0,91,0.00,,,0.00,,2013-03-25 00:43:00,
2013-03-24 20:53:00,75.0,72.0,29.70,WSW,240,0.0,6.0,91,0.00,,,0.00,,2013-03-25 00:53:00,
2013-03-24 21:02:00,75.0,72.0,29.70,WSW,252,1.0,8.0,91,0.00,,,0.00,,2013-03-25 01:02:00,
2013-03-24 21:12:00,75.0,72.0,29.70,WSW,252,1.0,8.0,91,0.00,,,0.00,,2013-03-25 01:12:00,
2013-03-24 21:22:00,74.0,71.0,29.71,WSW,252,1.0,12.0,91,0.00,,,0.00,,2013-03-25 01:22:00,
2013-03-24 21:32:00,74.0,71.0,29.71,West,265,0.0,7.0,91,0.00,,,0.00,,2013-03-25 01:32:00,
2013-03-24 21:42:00,74.0,71.0,29.71,West,265,0.0,7.0,91,0.00,,,0.00,,2013-03-25 01:42:00,
2013-03-24 21:53:00,74.0,71.0,29.72,West,280,0.0,6.0,91,0.00,,,0.00,,2013-03-25 01:53:00,
2013-03-24 22:02:00,74.0,71.0,29.73,West,280,0.0,0.0,91,0.00,,,0.00,,2013-03-25 02:02:00,
2013-03-24 22:12:00,74.0,71.0,29.73,West,280,0.0,0.0,91,0.00,,,0.00,,2013-03-25 02:12:00,
2013-03-24 22:22:00,73.0,70.0,29.73,West,261,1.0,13.0,91,0.00,,,0.00,,2013-03-25 02:22:00,
2013-03-24 22:33:00,73.0,70.0,29.73,WNW,302,0.0,9.0,91,0.00,,,0.00,,2013-03-25 02:33:00,
2013-03-24 22:43:00,73.0,70.0,29.73,WNW,302,0.0,9.0,91,0.00,,,0.00,,2013-03-25 02:43:00,
2013-03-24 22:52:00,72.0,69.0,29.74,WNW,282,1.0,8.0,90,0.00,,,0.00,,2013-03-25 02:52:00,
2013-03-24 23:03:00,72.0,69.0,29.75,West,274,3.0,9.0,89,0.00,,,0.00,,2013-03-25 03:03:00,
2013-03-24 23:13:00,72.0,69.0,29.75,West,274,3.0,9.0,89,0.00,,,0.00,,2013-03-25 03:13:00,
2013-03-24 23:23:00,72.0,69.0,29.75,West,263,0.0,9.0,89,0.00,,,0.00,,2013-03-25 03:23:00,
2013-03-24 23:33:00,72.0,69.0,29.75,WNW,299,1.0,7.0,89,0.00,,,0.00,,2013-03-25 03:33:00,
2013-03-24 23:43:00,72.0,69.0,29.75,WNW,299,1.0,7.0,89,0.00,,,0.00,,2013-03-25 03:43:00,
2013-03-24 23:53:00,72.0,68.0,29.75,WNW,282,0.0,6.0,88,0.00,,,0.00,,2013-03-25 03:53:00,